Weather History for Waukesha, WI

Change the Weather History Date:

Tuesday, September 24, 2013

  Actual Average Record
Temperature  
Mean Temperature 52 °F -  
Max Temperature 64 °F 67 °F 88 °F (1984)
Min Temperature 41 °F 46 °F 30 °F (1950)
Degree Days  
Heating Degree Days 12    
Growing Degree Days 2 (Base 50)    
Moisture  
Dew Point 46 °F    
Average Humidity 88    
Maximum Humidity 100    
Minimum Humidity 56    
Precipitation  
Precipitation 0.00 in - - ()
Sea Level Pressure  
Sea Level Pressure 30.04 in    
Wind  
Wind Speed 1 mph (East)    
Max Wind Speed 10 mph    
Max Gust Speed -    
Visibility 8 miles    
Events      
Averages and records for this station are not official NWS values.
T = Trace of Precipitation, MM = Missing Value Source: NWS Daily Summary

Daily Weather History Graph

Daily Weather History Graph

Search for Another Location

Airport:

Trip Planner

Search our weather history database for the weather conditions in past years. The results will help you decide how hot, cold, wet, or windy it might be!

Date:

Astronomy

Sep. 24, 2013 Rise Set
Actual Time 6:42 AM CDT 6:46 PM CDT
Civil Twilight 6:14 AM CDT 7:14 PM CDT
Nautical Twilight 5:41 AM CDT 7:47 PM CDT
Astronomical Twilight 5:07 AM CDT 8:21 PM CDT
Moon 9:55 PM CDT (9/24) 12:04 PM CDT (9/24)
Length of Visible Light 13h 00m
Length of Day
12h 03m
Waning Gibbous, 73% of the Moon is Illuminated
Sep 24
Waning Gibbous
Sep 26
Last Quarter
Oct 4
New
Oct 11
First Quarter
Oct 18
Full

Hourly Weather History & Observations

Time (CDT) Temp. Dew Point Humidity Pressure Visibility Wind Dir Wind Speed Gust Speed Precip Events Conditions
12:15 AM 44.6 °F 44.6 °F 100% 30.07 in 7.0 mi Calm Calm - N/A   Clear
12:35 AM 42.8 °F 42.8 °F 100% 30.06 in 5.0 mi Calm Calm - N/A   Clear
12:55 AM 42.8 °F 42.8 °F 100% 30.06 in 2.5 mi Calm Calm - N/A   Clear
1:15 AM 41.0 °F 41.0 °F 100% 30.06 in 4.0 mi Calm Calm - N/A   Clear
1:35 AM 44.6 °F 44.6 °F 100% 30.07 in 3.0 mi Calm Calm - N/A   Clear
1:55 AM 42.8 °F 42.8 °F 100% 30.07 in 5.0 mi Calm Calm - N/A   Clear
2:35 AM 44.6 °F 42.8 °F 93% 30.07 in 1.5 mi Calm Calm - N/A   Mist
2:55 AM 44.6 °F 42.8 °F 93% 30.07 in 0.8 mi Calm Calm - N/A   Mostly Cloudy
3:15 AM 42.8 °F 42.8 °F 100% 30.06 in 10.0 mi Calm Calm - N/A   Clear
3:35 AM 42.8 °F 42.8 °F 100% 30.07 in 10.0 mi Calm Calm - N/A   Clear
3:55 AM 42.8 °F 42.8 °F 100% 30.07 in 10.0 mi Calm Calm - N/A   Clear
4:35 AM 42.8 °F 42.8 °F 100% 30.08 in 10.0 mi Calm Calm - N/A   Clear
4:55 AM 44.6 °F 42.8 °F 93% 30.08 in 2.0 mi Calm Calm - N/A   Clear
5:15 AM 42.8 °F 41.0 °F 93% 30.09 in 10.0 mi Calm Calm - N/A   Clear
5:35 AM 42.8 °F 42.8 °F 100% 30.09 in 10.0 mi Calm Calm - N/A   Clear
6:45 AM 44.6 °F 42.8 °F 93% 30.09 in 10.0 mi Calm Calm - N/A   Clear
7:45 AM 46.4 °F 46.4 °F 100% 30.09 in 10.0 mi Calm Calm - N/A   Clear
8:45 AM 57.2 °F 53.6 °F 88% 30.08 in 10.0 mi ESE 6.9 mph - N/A   Clear
9:45 AM 60.8 °F 53.6 °F 77% 30.07 in 10.0 mi ESE 9.2 mph - N/A   Clear
10:45 AM 62.6 °F 53.6 °F 72% 30.07 in 10.0 mi ESE 6.9 mph - N/A   Scattered Clouds
11:45 AM 64.4 °F 50.0 °F 59% 30.05 in 10.0 mi ESE 8.1 mph - N/A   Mostly Cloudy
12:45 PM 64.4 °F 48.2 °F 56% 30.03 in 10.0 mi East 8.1 mph - N/A   Scattered Clouds
1:45 PM 64.4 °F 48.2 °F 56% 30.02 in 10.0 mi East 8.1 mph - N/A   Partly Cloudy
2:45 PM 64.4 °F 48.2 °F 56% 30.01 in 10.0 mi ENE 3.5 mph - N/A   Partly Cloudy
3:45 PM 64.4 °F 48.2 °F 56% 30.00 in 10.0 mi ESE 8.1 mph - N/A   Scattered Clouds
4:45 PM 62.6 °F 48.2 °F 59% 30.00 in 10.0 mi East 10.4 mph - N/A   Scattered Clouds
5:45 PM 59.0 °F 48.2 °F 67% 30.00 in 10.0 mi East 8.1 mph - N/A   Scattered Clouds
6:45 PM 55.4 °F 48.2 °F 77% 30.00 in 10.0 mi East 6.9 mph - N/A   Partly Cloudy
7:45 PM 53.6 °F 48.2 °F 82% 30.00 in 10.0 mi ENE 3.5 mph - N/A   Partly Cloudy
8:45 PM 48.2 °F 46.4 °F 93% 30.01 in 10.0 mi Calm Calm - N/A   Partly Cloudy
9:15 PM 46.4 °F 46.4 °F 100% 30.00 in 10.0 mi Calm Calm - N/A   Clear
9:35 PM 48.2 °F 46.4 °F 93% 30.00 in 10.0 mi Calm Calm - N/A   Clear
9:55 PM 46.4 °F 46.4 °F 100% 30.00 in 10.0 mi Calm Calm - N/A   Clear
10:15 PM 46.4 °F 46.4 °F 100% 30.00 in 7.0 mi Calm Calm - N/A   Clear
10:35 PM 46.4 °F 46.4 °F 100% 30.00 in 7.0 mi Calm Calm - N/A   Clear
10:55 PM 46.4 °F 46.4 °F 100% 30.00 in 7.0 mi Calm Calm - N/A   Clear
11:15 PM 46.4 °F 46.4 °F 100% 30.00 in 5.0 mi Calm Calm - N/A   Clear
11:35 PM 46.4 °F 44.6 °F 93% 30.00 in 5.0 mi Calm Calm - N/A   Clear
11:55 PM 46.4 °F 44.6 °F 93% 29.99 in 5.0 mi Calm Calm - N/A   Clear